| time (UTC) | temp F | wind direction | speed MPH | gust MPH | rain 1hr in | rain 24hr in | rain mn in | humidity % | barometer mb |
| 20260504214017 | 62 | 240 | 0.0 | 4.0 | 0.00 | 0.00 | 0.00 | 1 | 1013.1 |
| 20260504213512 | 62 | 219 | 1.0 | 5.0 | 0.00 | 0.00 | 0.00 | 1 | 1013.1 |
| 20260504213011 | 61 | 228 | 1.0 | 5.0 | 0.00 | 0.00 | 0.00 | 1 | 1013.2 |
| 20260504212510 | 61 | 233 | 0.0 | 6.0 | 0.00 | 0.00 | 0.00 | 1 | 1013.2 |
| 20260504212008 | 61 | 224 | 1.0 | 7.0 | 0.00 | 0.00 | 0.00 | 1 | 1013.3 |
| 20260504211553 | 61 | 224 | 0.0 | 7.0 | 0.00 | 0.00 | 0.00 | 1 | 1013.3 |
| 20260504211050 | 61 | 183 | 1.0 | 8.0 | 0.00 | 0.00 | 0.00 | 1 | 1013.3 |
| 20260504210550 | 60 | 207 | 1.0 | 8.0 | 0.00 | 0.00 | 0.00 | 1 | 1013.2 |
| 20260504210048 | 61 | 236 | 3.0 | 8.0 | 0.00 | 0.00 | 0.00 | 1 | 1013.1 |
| 20260504205546 | 61 | 235 | 0.0 | 4.0 | 0.00 | 0.00 | 0.00 | 1 | 1013.2 |
| 20260504205044 | 61 | 135 | 0.0 | 10.0 | 0.00 | 0.00 | 0.00 | 1 | 1013.1 |
| 20260504204528 | 61 | 219 | 1.0 | 7.0 | 0.00 | 0.00 | 0.00 | 1 | 1013.2 |
| 20260504204024 | 60 | 74 | 2.0 | 7.0 | 0.00 | 0.00 | 0.00 | 1 | 1013.2 |
| 20260504203525 | 60 | 187 | 1.0 | 6.0 | 0.00 | 0.00 | 0.00 | 1 | 1013.1 |
| 20260504203026 | 60 | 219 | 0.0 | 4.0 | 0.00 | 0.00 | 0.00 | 1 | 1013.1 |
| 20260504202520 | 60 | 225 | 0.0 | 4.0 | 0.00 | 0.00 | 0.00 | 1 | 1013.2 |
| 20260504202019 | 60 | 211 | 0.0 | 6.0 | 0.00 | 0.00 | 0.00 | 1 | 1013.2 |
| 20260504201625 | 60 | 274 | 0.0 | 7.0 | 0.00 | 0.00 | 0.00 | 1 | 1013.2 |
| 20260504201059 | 61 | 252 | 2.0 | 7.0 | 0.00 | 0.00 | 0.00 | 1 | 1013.2 |
| 20260504200557 | 61 | 225 | 1.0 | 6.0 | 0.00 | 0.00 | 0.00 | 1 | 1013.3 |
| 20260504200056 | 60 | 44 | 0.0 | 8.0 | 0.00 | 0.00 | 0.00 | 1 | 1013.3 |
| 20260504195554 | 61 | 246 | 2.0 | 8.0 | 0.00 | 0.00 | 0.00 | 1 | 1013.2 |
| 20260504195052 | 61 | 257 | 2.0 | 8.0 | 0.00 | 0.00 | 0.00 | 1 | 1013.2 |
| 20260504194534 | 61 | 236 | 3.0 | 7.0 | 0.00 | 0.00 | 0.00 | 1 | 1013.2 |
| 20260504194032 | 60 | 249 | 2.0 | 7.0 | 0.00 | 0.00 | 0.00 | 1 | 1013.1 |
| 20260504193530 | 60 | 235 | 2.0 | 9.0 | 0.00 | 0.00 | 0.00 | 1 | 1013.1 |
| 20260504193030 | 60 | 211 | 2.0 | 11.0 | 0.00 | 0.00 | 0.00 | 1 | 1013.2 |
| 20260504192527 | 60 | 207 | 1.0 | 6.0 | 0.00 | 0.00 | 0.00 | 1 | 1013.1 |
| 20260504192029 | 60 | 224 | 1.0 | 6.0 | 0.00 | 0.00 | 0.00 | 1 | 1013.2 |
| 20260504191510 | 60 | 224 | 1.0 | 10.0 | 0.00 | 0.00 | 0.00 | 1 | 1013.2 |
| 20260504191009 | 61 | 236 | 4.0 | 10.0 | 0.00 | 0.00 | 0.00 | 1 | 1013.2 |
| 20260504190509 | 60 | 231 | 1.0 | 8.0 | 0.00 | 0.00 | 0.00 | 1 | 1013.1 |
| 20260504190009 | 61 | 225 | 2.0 | 5.0 | 0.00 | 0.00 | 0.00 | 1 | 1013.2 |
| 20260504185508 | 61 | 223 | 0.0 | 9.0 | 0.00 | 0.00 | 0.00 | 1 | 1013.1 |
| 20260504185006 | 61 | 238 | 4.0 | 9.0 | 0.00 | 0.00 | 0.00 | 1 | 1013.1 |
| 20260504184602 | 61 | 238 | 1.0 | 7.0 | 0.00 | 0.00 | 0.00 | 1 | 1013.1 |
| 20260504184043 | 60 | 224 | 0.0 | 9.0 | 0.00 | 0.00 | 0.00 | 1 | 1013.1 |
| 20260504183542 | 60 | 190 | 2.0 | 9.0 | 0.00 | 0.00 | 0.00 | 1 | 1013.1 |
| 20260504183042 | 59 | 246 | 3.0 | 9.0 | 0.00 | 0.00 | 0.00 | 1 | 1013.1 |
| 20260504182539 | 59 | 225 | 1.0 | 9.0 | 0.00 | 0.00 | 0.00 | 1 | 1013.1 |
| 20260504182039 | 60 | 218 | 3.0 | 7.0 | 0.00 | 0.00 | 0.00 | 1 | 1013.1 |
| 20260504181529 | 59 | 210 | 1.0 | 5.0 | 0.00 | 0.00 | 0.00 | 1 | 1013.0 |
| 20260504181020 | 58 | 238 | 0.0 | 10.0 | 0.00 | 0.00 | 0.00 | 1 | 1013.1 |
| 20260504180519 | 58 | 217 | 3.0 | 10.0 | 0.00 | 0.00 | 0.00 | 1 | 1013.1 |
| 20260504180018 | 58 | 239 | 1.0 | 6.0 | 0.00 | 0.00 | 0.00 | 1 | 1012.9 |
| 20260504175515 | 58 | 225 | 1.0 | 5.0 | 0.00 | 0.00 | 0.00 | 1 | 1012.9 |
| 20260504175015 | 57 | 172 | 1.0 | 8.0 | 0.00 | 0.00 | 0.00 | 1 | 1012.9 |
| 20260504174555 | 57 | 231 | 0.0 | 8.0 | 0.00 | 0.00 | 0.00 | 1 | 1012.9 |
| 20260504174055 | 57 | 172 | 1.0 | 12.0 | 0.00 | 0.00 | 0.00 | 1 | 1012.8 |
| 20260504173553 | 57 | 209 | 4.0 | 12.0 | 0.00 | 0.00 | 0.00 | 1 | 1012.9 |
| 20260504173051 | 57 | 124 | 4.0 | 9.0 | 0.00 | 0.00 | 0.00 | 1 | 1012.9 |
| 20260504172549 | 57 | 338 | 2.0 | 7.0 | 0.00 | 0.00 | 0.00 | 1 | 1012.7 |
| 20260504172048 | 57 | 235 | 2.0 | 7.0 | 0.00 | 0.00 | 0.00 | 1 | 1012.8 |
| 20260504171533 | 57 | 229 | 1.0 | 12.0 | 0.00 | 0.00 | 0.00 | 1 | 1012.8 |
| 20260504171031 | 57 | 153 | 1.0 | 12.0 | 0.00 | 0.00 | 0.00 | 1 | 1012.7 |
| 20260504170531 | 56 | 243 | 1.0 | 6.0 | 0.00 | 0.00 | 0.00 | 1 | 1012.7 |
| 20260504151042 | 55 | 211 | 2.0 | 5.0 | 0.00 | 0.00 | 0.00 | 1011.9 | |
| 20260504150541 | 0 | 0.0 | 0.0 | 0.00 | 0.00 | 0.00 | 1011.9 | ||
| 20260504141050 | 0 | 0.0 | 0.0 | 0.00 | 0.00 | 0.00 | 1011.5 | ||
| 20260504140649 | 0 | 0.0 | 0.0 | 0.00 | 0.00 | 0.00 | 1011.4 | ||
| 20260504140105 | 0 | 0.0 | 0.0 | 0.00 | 0.00 | 0.00 | 1011.3 | ||
| 20260504130602 | 0 | 0.0 | 0.0 | 0.00 | 0.00 | 0.00 | 1010.8 | ||
| 20260504110532 | 0 | 0.0 | 0.0 | 0.00 | 0.00 | 0.00 | 1010.1 | ||
| 20260504100556 | 0 | 0.0 | 0.0 | 0.00 | 0.00 | 0.00 | 1009.7 | ||
| 20260504082000 | 0 | 0.0 | 0.0 | 0.00 | 0.00 | 0.00 | 1008.4 | ||
| 20260504081601 | 0 | 0.0 | 0.0 | 0.00 | 0.00 | 0.00 | 1008.4 | ||
| 20260504081059 | 0 | 0.0 | 0.0 | 0.00 | 0.00 | 0.00 | 1008.4 | ||
| 20260504080541 | 0 | 0.0 | 0.0 | 0.00 | 0.00 | 0.00 | 1008.4 | ||
| 20260504050546 | 55 | 255 | 0.0 | 0.0 | 0.00 | 0.00 | 0.00 | 1 | 1008.5 |
| 20260504045542 | 55 | 256 | 0.0 | 0.0 | 0.00 | 0.00 | 0.00 | 1 | 1008.5 |
| 20260504045041 | 55 | 257 | 0.0 | 0.0 | 0.00 | 0.00 | 0.00 | 1 | 1008.4 |
| 20260504044539 | 56 | 257 | 0.0 | 0.0 | 0.00 | 0.00 | 0.00 | 1 | 1008.5 |
| 20260504044039 | 56 | 257 | 0.0 | 0.0 | 0.00 | 0.00 | 0.00 | 1 | 1008.4 |
| 20260504043537 | 56 | 257 | 0.0 | 0.0 | 0.00 | 0.00 | 0.00 | 1 | 1008.4 |
| 20260504043035 | 56 | 256 | 0.0 | 0.0 | 0.00 | 0.00 | 0.00 | 1 | 1008.4 |
| 20260504042534 | 56 | 257 | 0.0 | 0.0 | 0.00 | 0.00 | 0.00 | 1 | 1008.4 |
| 20260504042031 | 56 | 257 | 0.0 | 0.0 | 0.00 | 0.00 | 0.00 | 1 | 1008.4 |
| 20260504041531 | 56 | 252 | 0.0 | 0.0 | 0.00 | 0.00 | 0.00 | 1 | 1008.4 |
| 20260504041030 | 56 | 252 | 0.0 | 0.0 | 0.00 | 0.00 | 0.00 | 1 | 1008.4 |
| 20260504040510 | 57 | 257 | 0.0 | 0.0 | 0.00 | 0.00 | 0.00 | 1 | 1008.3 |
| 20260504040009 | 57 | 266 | 0.0 | 0.0 | 0.00 | 0.00 | 0.00 | 1 | 1008.3 |
| 20260504035510 | 57 | 273 | 0.0 | 0.0 | 0.00 | 0.00 | 0.00 | 1 | 1008.3 |
| 20260504035007 | 58 | 248 | 0.0 | 0.0 | 0.00 | 0.00 | 0.00 | 1 | 1008.3 |
| 20260504034510 | 58 | 248 | 0.0 | 0.0 | 0.00 | 0.00 | 0.00 | 1 | 1008.3 |
| 20260504034003 | 58 | 248 | 0.0 | 0.0 | 0.00 | 0.00 | 0.00 | 1 | 1008.3 |
| 20260504033605 | 59 | 248 | 0.0 | 0.0 | 0.00 | 0.00 | 0.00 | 1 | 1008.3 |
| 20260504033051 | 59 | 248 | 0.0 | 0.0 | 0.00 | 0.00 | 0.00 | 1 | 1008.3 |
| 20260504032542 | 60 | 246 | 0.0 | 0.0 | 0.00 | 0.00 | 0.00 | 1 | 1008.3 |
| 20260504032041 | 61 | 246 | 0.0 | 0.0 | 0.00 | 0.00 | 0.00 | 1 | 1008.2 |
| 20260504031538 | 61 | 281 | 0.0 | 0.0 | 0.00 | 0.00 | 0.00 | 1 | 1008.2 |
| 20260504031037 | 62 | 256 | 0.0 | 1.0 | 0.00 | 0.00 | 0.00 | 1 | 1008.3 |
| 20260504030536 | 62 | 259 | 0.0 | 1.0 | 0.00 | 0.00 | 0.00 | 1 | 1008.3 |
| 20260504030017 | 63 | 264 | 0.0 | 1.0 | 0.00 | 0.00 | 0.00 | 5 | 1008.3 |
| 20260504025516 | 63 | 263 | 0.0 | 1.0 | 0.00 | 0.00 | 0.00 | 15 | 1008.3 |
| 20260504025019 | 63 | 252 | 0.0 | 1.0 | 0.00 | 0.00 | 0.00 | 20 | 1008.3 |
| 20260504024533 | 63 | 274 | 0.0 | 1.0 | 0.00 | 0.00 | 0.00 | 27 | 1008.3 |
| 20260504024011 | 64 | 271 | 0.0 | 0.0 | 0.00 | 0.00 | 0.00 | 31 | 1008.2 |
| 20260504023510 | 64 | 269 | 0.0 | 0.0 | 0.00 | 0.00 | 0.00 | 35 | 1008.3 |
| 20260504023051 | 64 | 214 | 0.0 | 0.0 | 0.00 | 0.00 | 0.00 | 39 | 1008.3 |
| 20260504022550 | 64 | 280 | 0.0 | 0.0 | 0.00 | 0.00 | 0.00 | 41 | 1008.3 |
| 20260504022048 | 64 | 278 | 0.0 | 1.0 | 0.00 | 0.00 | 0.00 | 47 | 1008.3 |
| 20260504021552 | 64 | 255 | 0.0 | 4.0 | 0.00 | 0.00 | 0.00 | 51 | 1008.3 |
| 20260504021047 | 64 | 263 | 0.0 | 2.0 | 0.00 | 0.00 | 0.00 | 55 | 1008.4 |
| 20260504020546 | 65 | 240 | 0.0 | 2.0 | 0.00 | 0.00 | 0.00 | 55 | 1008.3 |
| 20260504020028 | 64 | 277 | 0.0 | 2.0 | 0.00 | 0.00 | 0.00 | 57 | 1008.4 |
| 20260504015528 | 65 | 235 | 0.0 | 2.0 | 0.00 | 0.00 | 0.00 | 59 | 1008.5 |
| 20260504015028 | 65 | 300 | 0.0 | 1.0 | 0.00 | 0.00 | 0.00 | 60 | 1008.4 |
| 20260504014527 | 65 | 264 | 0.0 | 2.0 | 0.00 | 0.00 | 0.00 | 61 | 1008.5 |
| 20260504014026 | 65 | 278 | 0.0 | 2.0 | 0.00 | 0.00 | 0.00 | 61 | 1008.5 |
| 20260504013525 | 65 | 219 | 0.0 | 2.0 | 0.00 | 0.00 | 0.00 | 62 | 1008.5 |
| 20260504013007 | 65 | 26 | 0.0 | 2.0 | 0.00 | 0.00 | 0.00 | 62 | 1008.7 |
| 20260504012507 | 65 | 284 | 0.0 | 1.0 | 0.00 | 0.00 | 0.00 | 62 | 1008.7 |
| 20260504012006 | 65 | 266 | 0.0 | 1.0 | 0.00 | 0.00 | 0.00 | 62 | 1008.7 |
| 20260504011506 | 65 | 80 | 0.0 | 5.0 | 0.00 | 0.00 | 0.00 | 62 | 1008.7 |
| 20260504011005 | 65 | 314 | 1.0 | 9.0 | 0.00 | 0.00 | 0.00 | 61 | 1008.8 |
| 20260504010505 | 65 | 209 | 2.0 | 9.0 | 0.00 | 0.00 | 0.00 | 60 | 1008.9 |
| 20260504010046 | 66 | 253 | 0.0 | 4.0 | 0.00 | 0.00 | 0.00 | 60 | 1008.9 |
| 20260504005545 | 66 | 15 | 0.0 | 4.0 | 0.00 | 0.00 | 0.00 | 59 | 1008.9 |
| 20260504005046 | 66 | 260 | 0.0 | 2.0 | 0.00 | 0.00 | 0.00 | 60 | 1009.0 |
| 20260504004558 | 66 | 305 | 0.0 | 3.0 | 0.00 | 0.00 | 0.00 | 59 | 1009.1 |
| 20260504004042 | 66 | 32 | 1.0 | 3.0 | 0.00 | 0.00 | 0.00 | 59 | 1009.1 |
| 20260504003543 | 67 | 293 | 0.0 | 3.0 | 0.00 | 0.00 | 0.00 | 59 | 1009.1 |
| 20260504003022 | 67 | 197 | 0.0 | 4.0 | 0.00 | 0.00 | 0.00 | 58 | 1009.2 |
| 20260504002521 | 67 | 281 | 0.0 | 4.0 | 0.00 | 0.00 | 0.00 | 59 | 1009.3 |
| 20260504002022 | 67 | 288 | 0.0 | 5.0 | 0.00 | 0.00 | 0.00 | 58 | 1009.3 |
| 20260504001521 | 67 | 326 | 0.0 | 5.0 | 0.00 | 0.00 | 0.00 | 59 | 1009.3 |
| 20260504001025 | 67 | 314 | 0.0 | 4.0 | 0.00 | 0.00 | 0.00 | 60 | 1009.3 |
| 20260504000524 | 68 | 309 | 1.0 | 5.0 | 0.00 | 0.00 | 0.00 | 60 | 1009.3 |
| 20260504000002 | 68 | 303 | 0.0 | 5.0 | 0.00 | 0.00 | 0.00 | 61 | 1009.4 |
| 20260503235503 | 67 | 245 | 0.0 | 5.0 | 0.00 | 0.00 | 0.00 | 60 | 1009.4 |
| 20260503235105 | 68 | 200 | 1.0 | 5.0 | 0.00 | 0.00 | 0.00 | 59 | 1009.5 |
| 20260503234600 | 67 | 46 | 0.0 | 5.0 | 0.00 | 0.00 | 0.00 | 59 | 1009.5 |
| 20260503234100 | 67 | 271 | 0.0 | 4.0 | 0.00 | 0.00 | 0.00 | 58 | 1009.5 |
| 20260503233600 | 68 | 120 | 1.0 | 7.0 | 0.00 | 0.00 | 0.00 | 59 | 1009.6 |
| 20260503233041 | 68 | 309 | 1.0 | 7.0 | 0.00 | 0.00 | 0.00 | 59 | 1009.7 |
| 20260503232540 | 67 | 62 | 1.0 | 5.0 | 0.00 | 0.00 | 0.00 | 59 | 1009.8 |
| 20260503232040 | 67 | 276 | 0.0 | 5.0 | 0.00 | 0.00 | 0.00 | 61 | 1009.8 |
| 20260503231549 | 67 | 46 | 1.0 | 3.0 | 0.00 | 0.00 | 0.00 | 60 | 1009.9 |
| 20260503231038 | 67 | 297 | 0.0 | 2.0 | 0.00 | 0.00 | 0.00 | 59 | 1009.9 |
| 20260503230540 | 68 | 295 | 0.0 | 3.0 | 0.00 | 0.00 | 0.00 | 61 | 1010.0 |
| 20260503230019 | 68 | 304 | 1.0 | 3.0 | 0.00 | 0.00 | 0.00 | 60 | 1010.0 |
| 20260503225517 | 68 | 308 | 1.0 | 4.0 | 0.00 | 0.00 | 0.00 | 59 | 1010.1 |
| 20260503225016 | 68 | 316 | 0.0 | 4.0 | 0.00 | 0.00 | 0.00 | 59 | 1010.1 |
| 20260503224515 | 69 | 302 | 0.0 | 3.0 | 0.00 | 0.00 | 0.00 | 58 | 1010.2 |
| 20260503224015 | 69 | 250 | 1.0 | 8.0 | 0.00 | 0.00 | 0.00 | 59 | 1010.3 |
| 20260503223513 | 69 | 28 | 1.0 | 6.0 | 0.00 | 0.00 | 0.00 | 59 | 1010.3 |
| 20260503223059 | 69 | 293 | 0.0 | 3.0 | 0.00 | 0.00 | 0.00 | 58 | 1010.4 |
| 20260503222556 | 69 | 113 | 0.0 | 5.0 | 0.00 | 0.00 | 0.00 | 59 | 1010.4 |
| 20260503222057 | 69 | 329 | 1.0 | 6.0 | 0.00 | 0.00 | 0.00 | 59 | 1010.5 |
| 20260503221556 | 70 | 302 | 1.0 | 5.0 | 0.00 | 0.00 | 0.00 | 58 | 1010.5 |
| 20260503221056 | 70 | 320 | 1.0 | 5.0 | 0.00 | 0.00 | 0.00 | 58 | 1010.5 |
| 20260503220552 | 70 | 300 | 0.0 | 6.0 | 0.00 | 0.00 | 0.00 | 59 | 1010.6 |
| 20260503220037 | 71 | 70 | 1.0 | 7.0 | 0.00 | 0.00 | 0.00 | 55 | 1010.6 |
| 20260503215534 | 71 | 290 | 0.0 | 6.0 | 0.00 | 0.00 | 0.00 | 56 | 1010.7 |
| 20260503215032 | 71 | 66 | 1.0 | 7.0 | 0.00 | 0.00 | 0.00 | 56 | 1010.7 |
| 20260503214530 | 71 | 255 | 1.0 | 7.0 | 0.00 | 0.00 | 0.00 | 54 | 1010.7 |